Find Starlink 11112

NORAD ID: 60115 Int'l Des: 2024-118 Owner: SPXS Country: US Constellation: starlink operational
別名: STARLINK-11112 [DTC] celestrak
LEOCIRCULAR

現在のビュー

3D地球を読み込み中...

About Starlink 11112

Starlink 11112 (NORAD 60115) is a starlink constellation satellite (v2 mini d2c) launched Jun 24, 2024 by SPXS of US. It operates in LEO, CIRCULAR orbit with a mass of 960.00 kg.

次回通過

Passes for default location (London). Set your location on the main map for personalized predictions.

高度履歴

Loading altitude history...

軌道要素

1 60115U 24118C 26265.44744973 -.00012253 00000-0 -96203-4 0 9991
2 60115 53.1575 331.5167 0001229 158.6515 201.4555 15.69764334128890
Epoch: Sep 22, 2026 • Age: 17 hours

現在のステータス

高度 359.5 km
遠地点 / 近地点 N/A
速度 7.70 km/s
衛星直下点 22.19°N, 65.34°E
打ち上げ日 Jun 24, 2024
運用期間 2.2 years
タイプ internet

技術仕様

分類 Payload
質量 960.00 kg
乾燥質量 910.00 kg
長さ 0.30 m
スパン 29.00 m
形状 ? Box + pan
製造者 SPXS
バスタイプ Starlink V2MD
フェーズステータス In Orbit
所有者/国 SPXS/US

Most Searched